GW2477 Weather Reports


Display with metric or nautical units.
time (UTC)temp
F
wind
direction
speed
MPH
gust
MPH
rain 1hr
in
rain 24hr
in
rain mn
in
humidity
%
barometer
mb
20260906061516 75 21 0.0 3.0 0.00 0.00 0.00 38 1018.5
20260906061016 75 9 0.0 2.0 0.00 0.00 0.00 38 1018.5
20260906060536 75 197 0.0 2.0 0.00 0.00 0.00 39 1018.4
20260906060052 75 205 0.0 2.0 0.00 0.00 0.00 39 1018.3
20260906055530 75 241 0.0 2.0 0.00 0.00 0.00 39 1018.4
20260906055014 74 240 0.0 4.0 0.00 0.00 0.00 39 1018.4
20260906054547 74 355 1.0 3.0 0.00 0.00 0.00 39 1018.3
20260906054036 73 295 1.0 3.0 0.00 0.00 0.00 40 1018.3
20260906053600 72 273 0.0 3.0 0.00 0.00 0.00 40 1018.3
20260906053039 72 219 0.0 2.0 0.00 0.00 0.00 41 1018.3
20260906052520 71 311 0.0 2.0 0.00 0.00 0.00 43 1018.2
20260906052042 71 296 0.0 4.0 0.00 0.00 0.00 43 1018.2
20260906051602 70 14 0.0 4.0 0.00 0.00 0.00 45 1018.2
20260906051035 69 26 0.0 0.0 0.00 0.00 0.00 47 1018.2
20260906050600 69 99 0.0 0.0 0.00 0.00 0.00 48 1018.1
20260906050104 69 103 0.0 0.0 0.00 0.00 0.00 49 1018.2
20260906045504 68 63 0.0 0.0 0.00 0.00 0.00 50 1018.2
20260906045052 68 96 0.0 0.0 0.00 0.00 0.00 50 1018.2
20260906044523 68 91 0.0 0.0 0.00 0.00 0.00 51 1018.1
20260906044025 68 110 0.0 0.0 0.00 0.00 0.00 52 1018.1
20260906043516 69 67 0.0 0.0 0.00 0.00 0.00 51 1018.1
20260906043029 69 67 0.0 0.0 0.00 0.00 0.00 51 1018.1
20260906042555 69 67 0.0 0.0 0.00 0.00 0.00 51 1018.1
20260906042054 70 57 0.0 0.0 0.00 0.00 0.00 50 1018.1
20260906041538 70 46 0.0 0.0 0.00 0.00 0.00 49 1018.1
20260906041032 70 44 0.0 0.0 0.00 0.00 0.00 49 1018.0
20260906040504 71 44 0.0 0.0 0.00 0.00 0.00 48 1018.1
20260906040014 71 44 0.0 0.0 0.00 0.00 0.00 47 1018.1
20260906035546 71 61 0.0 0.0 0.00 0.00 0.00 47 1017.9
20260906035042 71 72 0.0 0.0 0.00 0.00 0.00 46 1018.1
20260906034535 71 66 0.0 0.0 0.00 0.00 0.00 46 1018.1
20260906034031 71 90 0.0 0.0 0.00 0.00 0.00 45 1018.1
20260906033505 71 72 0.0 0.0 0.00 0.00 0.00 45 1018.0
20260906033046 71 96 0.0 0.0 0.00 0.00 0.00 45 1017.9
20260906032508 71 94 0.0 0.0 0.00 0.00 0.00 45 1017.9
20260906032004 70 334 0.0 0.0 0.00 0.00 0.00 45 1018.0
20260906031548 70 39 0.0 0.0 0.00 0.00 0.00 45 1017.9
20260906031039 69 67 0.0 0.0 0.00 0.00 0.00 46 1018.0
20260906030508 68 73 0.0 0.0 0.00 0.00 0.00 47 1017.9
20260906030022 68 51 0.0 0.0 0.00 0.00 0.00 47 1018.0
20260906025548 68 51 0.0 0.0 0.00 0.00 0.00 48 1018.0
20260906025050 67 115 0.0 0.0 0.00 0.00 0.00 48 1018.0
20260906024537 67 115 0.0 0.0 0.00 0.00 0.00 48 1018.1
20260906024032 67 115 0.0 0.0 0.00 0.00 0.00 48 1017.8
20260906023504 67 108 0.0 0.0 0.00 0.00 0.00 48 1018.0
20260906023048 67 131 0.0 0.0 0.00 0.00 0.00 49 1017.9
20260906022511 67 131 0.0 0.0 0.00 0.00 0.00 49 1017.9
20260906022012 67 114 0.0 0.0 0.00 0.00 0.00 49 1017.9
20260906021602 67 114 0.0 0.0 0.00 0.00 0.00 49 1017.9
20260906021056 67 114 0.0 0.0 0.00 0.00 0.00 49 1017.8
20260906020530 67 114 0.0 0.0 0.00 0.00 0.00 49 1017.8
20260906020046 67 114 0.0 0.0 0.00 0.00 0.00 50 1017.9
20260906015508 67 114 0.0 0.0 0.00 0.00 0.00 49 1017.9
20260906015008 67 114 0.0 0.0 0.00 0.00 0.00 49 1017.9
20260906014556 67 114 0.0 0.0 0.00 0.00 0.00 49 1017.9
20260906014053 67 114 0.0 0.0 0.00 0.00 0.00 49 1017.9
20260906013522 67 114 0.0 0.0 0.00 0.00 0.00 49 1017.9
20260906013036 67 114 0.0 0.0 0.00 0.00 0.00 49 1018.0
20260906012559 68 114 0.0 0.0 0.00 0.00 0.00 49 1018.0
20260906012056 68 114 0.0 0.0 0.00 0.00 0.00 49 1018.1
20260906011557 68 114 0.0 0.0 0.00 0.00 0.00 49 1018.0
20260906011036 68 114 0.0 0.0 0.00 0.00 0.00 48 1018.0
20260906010503 68 114 0.0 0.0 0.00 0.00 0.00 48 1018.1
20260906010006 68 114 0.0 0.0 0.00 0.00 0.00 48 1018.2
20260906005538 68 114 0.0 0.0 0.00 0.00 0.00 48 1018.1
20260906005034 68 114 0.0 0.0 0.00 0.00 0.00 48 1018.2
20260906004512 68 114 0.0 0.0 0.00 0.00 0.00 48 1018.3
20260906004006 69 114 0.0 0.0 0.00 0.00 0.00 47 1018.2
20260906003536 69 114 0.0 0.0 0.00 0.00 0.00 47 1018.2
20260906003038 69 114 0.0 0.0 0.00 0.00 0.00 47 1018.3
20260906002508 69 114 0.0 0.0 0.00 0.00 0.00 46 1018.3
20260906002004 70 114 0.0 0.0 0.00 0.00 0.00 46 1018.3
20260906001546 70 114 0.0 0.0 0.00 0.00 0.00 46 1018.3
20260906001033 70 114 0.0 0.0 0.00 0.00 0.00 45 1018.3
20260906000600 71 114 0.0 0.0 0.00 0.00 0.00 44 1018.1
20260906000046 71 114 0.0 0.0 0.00 0.00 0.00 44 1018.1
20260905235556 71 114 0.0 0.0 0.00 0.00 0.00 43 1018.2
20260905235050 72 114 0.0 0.0 0.00 0.00 0.00 43 1018.1
20260905234548 72 114 0.0 0.0 0.00 0.00 0.00 42 1018.1
20260905234038 73 114 0.0 0.0 0.00 0.00 0.00 41 1018.2
20260905233536 73 114 0.0 0.0 0.00 0.00 0.00 41 1018.2
20260905233039 74 114 0.0 0.0 0.00 0.00 0.00 41 1018.2
20260905232502 74 114 0.0 0.0 0.00 0.00 0.00 40 1018.2
20260905232047 74 114 0.0 2.0 0.00 0.00 0.00 40 1018.2
20260905231508 75 114 0.0 3.0 0.00 0.00 0.00 40 1018.2
20260905231102 75 110 0.0 3.0 0.00 0.00 0.00 39 1018.2
20260905230502 75 118 0.0 4.0 0.00 0.00 0.00 39 1018.3
20260905230055 75 116 1.0 4.0 0.00 0.00 0.00 38 1018.4
20260905225559 75 79 1.0 3.0 0.00 0.00 0.00 38 1018.3
20260905225501 75 84 1.0 3.0 0.00 0.00 0.00 38 1018.4
20260905225052 75 78 1.0 3.0 0.00 0.00 0.00 39 1018.3
20260905224503 75 103 0.0 3.0 0.00 0.00 0.00 40 1018.5
20260905224050 75 111 1.0 3.0 0.00 0.00 0.00 39 1018.5
20260905223555 75 148 1.0 3.0 0.00 0.00 0.00 40 1018.4
20260905223008 75 117 0.0 2.0 0.00 0.00 0.00 40 1018.5
20260905222531 76 119 0.0 2.0 0.00 0.00 0.00 39 1018.5
20260905222018 76 34 0.0 2.0 0.00 0.00 0.00 39 1018.6
20260905221510 76 105 0.0 4.0 0.00 0.00 0.00 40 1018.6
20260905221009 76 81 1.0 6.0 0.00 0.00 0.00 39 1018.6
20260905220518 76 98 2.0 6.0 0.00 0.00 0.00 39 1018.6
20260905220016 76 79 1.0 5.0 0.00 0.00 0.00 40 1018.7
20260905215543 75 103 2.0 6.0 0.00 0.00 0.00 40 1018.7
20260905215030 75 77 2.0 6.0 0.00 0.00 0.00 40 1018.6
20260905214601 75 105 0.0 3.0 0.00 0.00 0.00 41 1018.8
20260905214049 75 106 0.0 3.0 0.00 0.00 0.00 41 1018.8
20260905213536 75 105 1.0 3.0 0.00 0.00 0.00 41 1018.8
20260905213031 75 238 0.0 3.0 0.00 0.00 0.00 42 1018.8
20260905212550 75 238 1.0 5.0 0.00 0.00 0.00 42 1018.8
20260905212040 74 261 1.0 5.0 0.00 0.00 0.00 42 1018.7
20260905211611 74 9 1.0 5.0 0.00 0.00 0.00 42 1018.7
20260905211031 73 86 0.0 5.0 0.00 0.00 0.00 43 1018.7
20260905210547 72 76 1.0 5.0 0.00 0.00 0.00 45 1018.7
20260905210040 72 257 0.0 3.0 0.00 0.00 0.00 46 1018.6
20260905205511 71 78 0.0 3.0 0.00 0.00 0.00 46 1018.6
20260905205011 71 213 0.0 3.0 0.00 0.00 0.00 47 1018.6
20260905204558 70 78 0.0 3.0 0.00 0.00 0.00 48 1018.7
20260905204053 70 26 0.0 3.0 0.00 0.00 0.00 49 1018.7
20260905203524 69 50 0.0 3.0 0.00 0.00 0.00 50 1018.6
20260905203056 68 28 0.0 3.0 0.00 0.00 0.00 50 1018.6
20260905202526 68 72 0.0 2.0 0.00 0.00 0.00 50 1018.6
20260905202028 69 72 0.0 2.0 0.00 0.00 0.00 50 1018.6
20260905201511 69 72 0.0 2.0 0.00 0.00 0.00 50 1018.7
20260905201009 69 68 0.0 2.0 0.00 0.00 0.00 49 1018.6
20260905200542 69 68 0.0 2.0 0.00 0.00 0.00 49 1018.6
20260905200053 70 68 0.0 2.0 0.00 0.00 0.00 48 1018.6
20260905195531 70 68 0.0 0.0 0.00 0.00 0.00 47 1018.6
20260905195022 70 68 0.0 0.0 0.00 0.00 0.00 47 1018.5
20260905194504 70 68 0.0 0.0 0.00 0.00 0.00 47 1018.6
20260905194005 71 68 0.0 2.0 0.00 0.00 0.00 47 1018.6
20260905193539 71 68 0.0 2.0 0.00 0.00 0.00 47 1018.6
20260905193014 71 63 0.0 1.0 0.00 0.00 0.00 47 1018.7
20260905192546 71 63 0.0 2.0 0.00 0.00 0.00 46 1018.5
20260905192046 72 63 0.0 2.0 0.00 0.00 0.00 46 1018.4
20260905191527 72 63 0.0 2.0 0.00 0.00 0.00 46 1018.5
20260905191021 72 63 0.0 2.0 0.00 0.00 0.00 46 1018.5
20260905190552 72 63 0.0 2.0 0.00 0.00 0.00 46 1018.5
20260905190107 73 63 0.0 2.0 0.00 0.00 0.00 45 1018.5
20260905185529 73 63 0.0 2.0 0.00 0.00 0.00 44 1018.5
20260905185023 73 64 0.0 2.0 0.00 0.00 0.00 44 1018.5
20260905184528 74 64 0.0 2.0 0.00 0.00 0.00 43 1018.4
20260905184009 74 30 0.0 2.0 0.00 0.00 0.00 43 1018.4
20260905183543 74 45 0.0 2.0 0.00 0.00 0.00 43 1018.4
20260905183055 74 30 0.0 3.0 0.00 0.00 0.00 43 1018.4
20260905182531 74 40 1.0 3.0 0.00 0.00 0.00 43 1018.4
20260905182026 74 306 0.0 4.0 0.00 0.00 0.00 42 1018.4
20260905181512 74 58 2.0 4.0 0.00 0.00 0.00 43 1018.4
20260905181006 75 47 1.0 5.0 0.00 0.00 0.00 42 1018.3
20260905180538 75 40 0.0 5.0 0.00 0.00 0.00 42 1018.3
20260905180051 75 36 1.0 3.0 0.00 0.00 0.00 42 1018.3
20260905175513 75 34 0.0 6.0 0.00 0.00 0.00 41 1018.2
20260905175012 75 332 0.0 6.0 0.00 0.00 0.00 41 1018.2
20260905174553 75 17 1.0 6.0 0.00 0.00 0.00 40 1018.2
20260905174053 75 69 2.0 9.0 0.00 0.00 0.00 40 1018.2
20260905173521 75 42 1.0 6.0 0.00 0.00 0.00 39 1017.9
20260905173023 76 61 2.0 8.0 0.00 0.00 0.00 39 1018.0
20260905172557 76 27 3.0 9.0 0.00 0.00 0.00 38 1018.0
20260905172005 76 336 2.0 9.0 0.00 0.00 0.00 38 1018.0
20260905171543 76 20 1.0 6.0 0.00 0.00 0.00 38 1017.9
20260905171030 77 9 2.0 8.0 0.00 0.00 0.00 37 1018.0
20260905170559 77 61 2.0 9.0 0.00 0.00 0.00 36 1018.0
20260905170009 77 36 5.0 9.0 0.00 0.00 0.00 37 1017.9
20260905165540 78 44 1.0 8.0 0.00 0.00 0.00 37 1017.9
20260905165033 78 30 2.0 8.0 0.00 0.00 0.00 37 1018.0
20260905164519 79 32 2.0 6.0 0.00 0.00 0.00 37 1018.0
20260905164015 79 39 1.0 9.0 0.00 0.00 0.00 38 1017.9
20260905163550 80 54 2.0 9.0 0.00 0.00 0.00 35 1017.9
20260905163111 80 34 2.0 9.0 0.00 0.00 0.00 35 1017.9
20260905163003 80 51 1.0 9.0 0.00 0.00 0.00 35 1017.9
20260905162531 81 69 2.0 9.0 0.00 0.00 0.00 34 1017.9
20260905162025 81 22 1.0 10.0 0.00 0.00 0.00 33 1018.0
20260905161505 82 71 3.0 10.0 0.00 0.00 0.00 34 1018.0
20260905161003 82 47 0.0 7.0 0.00 0.00 0.00 34 1018.1
20260905160535 82 67 3.0 8.0 0.00 0.00 0.00 34 1018.1
20260905160009 82 360 1.0 4.0 0.00 0.00 0.00 34 1018.0
20260905155544 83 30 1.0 4.0 0.00 0.00 0.00 33 1018.1
20260905155037 82 22 2.0 4.0 0.00 0.00 0.00 33 1018.1
20260905154521 82 351 1.0 13.0 0.00 0.00 0.00 33 1018.1
20260905154021 82 229 2.0 13.0 0.00 0.00 0.00 34 1018.2
20260905153552 83 264 2.0 8.0 0.00 0.00 0.00 35 1018.2
20260905153033 83 207 2.0 7.0 0.00 0.00 0.00 39 1018.2
20260905152525 83 325 0.0 6.0 0.00 0.00 0.00 39 1018.0
20260905152019 83 40 3.0 7.0 0.00 0.00 0.00 39 1018.1
20260905151526 83 320 2.0 9.0 0.00 0.00 0.00 39 1018.1
20260905151048 83 51 1.0 11.0 0.00 0.00 0.00 39 1018.1
20260905150559 84 310 2.0 11.0 0.00 0.00 0.00 39 1018.2
20260905150503 84 330 3.0 11.0 0.00 0.00 0.00 39 1018.2
20260905150039 84 257 1.0 8.0 0.00 0.00 0.00 41 1018.2
20260905145538 84 342 3.0 9.0 0.00 0.00 0.00 45 1018.2
20260905145025 85 234 1.0 9.0 0.00 0.00 0.00 48 1018.2
20260905144507 85 303 3.0 9.0 0.00 0.00 0.00 43 1018.1
20260905144008 85 337 2.0 7.0 0.00 0.00 0.00 45 1018.1
20260905143525 86 309 2.0 9.0 0.00 0.00 0.00 44 1018.2
20260905143035 85 33 3.0 9.0 0.00 0.00 0.00 43 1018.2
20260905142515 85 355 4.0 9.0 0.00 0.00 0.00 44 1018.1
20260905142009 86 293 3.0 8.0 0.00 0.00 0.00 45 1018.3
20260905141547 86 265 2.0 8.0 0.00 0.00 0.00 46 1018.4
20260905141037 86 299 2.0 7.0 0.00 0.00 0.00 45 1018.3
20260905140509 86 211 2.0 14.0 0.00 0.00 0.00 44 1018.3
20260905140025 87 350 5.0 14.0 0.00 0.00 0.00 39 1018.3
20260905135545 87 290 2.0 6.0 0.00 0.00 0.00 37 1018.3
20260905135028 88 307 2.0 10.0 0.00 0.00 0.00 36 1018.3
20260905134551 88 252 3.0 10.0 0.00 0.00 0.00 35 1018.2
20260905134047 88 312 1.0 10.0 0.00 0.00 0.00 35 1018.2
20260905133550 88 237 2.0 10.0 0.00 0.00 0.00 33 1018.4
20260905133043 88 266 1.0 8.0 0.00 0.00 0.00 33 1018.4
20260905132504 88 236 3.0 8.0 0.00 0.00 0.00 32 1018.4
20260905132007 88 322 2.0 8.0 0.00 0.00 0.00 31 1018.5
20260905131550 89 21 3.0 10.0 0.00 0.00 0.00 32 1018.5
20260905131058 89 360 3.0 10.0 0.00 0.00 0.00 31 1018.5
20260905130517 89 15 3.0 8.0 0.00 0.00 0.00 30 1018.5
20260905130023 88 64 3.0 9.0 0.00 0.00 0.00 30 1018.5
20260905125555 88 325 3.0 11.0 0.00 0.00 0.00 30 1018.5
20260905125059 88 290 5.0 11.0 0.00 0.00 0.00 30 1018.6
20260905125001 88 287 2.0 9.0 0.00 0.00 0.00 30 1018.6
20260905124543 88 234 3.0 9.0 0.00 0.00 0.00 30 1018.5
20260905124030 89 342 3.0 8.0 0.00 0.00 0.00 29 1018.5
20260905123557 89 34 3.0 9.0 0.00 0.00 0.00 29 1018.5
20260905123005 89 343 3.0 10.0 0.00 0.00 0.00 30 1018.6
20260905122537 89 332 2.0 8.0 0.00 0.00 0.00 31 1018.6
20260905122026 90 55 2.0 7.0 0.00 0.00 0.00 30 1018.7
20260905121511 89 9 2.0 7.0 0.00 0.00 0.00 30 1018.6
20260905121012 88 347 3.0 12.0 0.00 0.00 0.00 31 1018.6
20260905120542 88 17 3.0 12.0 0.00 0.00 0.00 31 1018.8
20260905120016 88 344 1.0 11.0 0.00 0.00 0.00 30 1018.8
20260905115547 89 327 4.0 11.0 0.00 0.00 0.00 29 1018.8
20260905115043 88 221 2.0 8.0 0.00 0.00 0.00 29 1018.8
20260905114525 88 316 2.0 8.0 0.00 0.00 0.00 29 1018.8
20260905114017 88 290 3.0 11.0 0.00 0.00 0.00 28 1019.0
20260905113545 89 306 4.0 11.0 0.00 0.00 0.00 28 1019.1
20260905113019 90 287 2.0 10.0 0.00 0.00 0.00 28 1019.0
20260905112549 90 288 1.0 8.0 0.00 0.00 0.00 28 1018.9
20260905112044 90 323 2.0 9.0 0.00 0.00 0.00 28 1018.9
20260905111532 90 259 2.0 7.0 0.00 0.00 0.00 27 1018.9
20260905111024 91 315 2.0 8.0 0.00 0.00 0.00 27 1019.1
20260905110552 91 300 1.0 8.0 0.00 0.00 0.00 27 1019.0
20260905110018 90 276 1.0 7.0 0.00 0.00 0.00 30 1019.1
20260905105532 90 11 2.0 7.0 0.00 0.00 0.00 30 1019.0
20260905105026 90 28 3.0 7.0 0.00 0.00 0.00 29 1019.0
20260905104513 90 183 1.0 9.0 0.00 0.00 0.00 29 1019.0
20260905104005 91 234 1.0 7.0 0.00 0.00 0.00 30 1019.0
20260905103533 90 360 2.0 7.0 0.00 0.00 0.00 31 1019.0
20260905103009 90 35 1.0 8.0 0.00 0.00 0.00 31 1019.0
20260905102528 90 345 2.0 9.0 0.00 0.00 0.00 31 1019.0
20260905102024 89 360 3.0 9.0 0.00 0.00 0.00 31 1019.0
20260905101503 89 28 2.0 10.0 0.00 0.00 0.00 30 1019.1
20260905101058 88 9 4.0 9.0 0.00 0.00 0.00 30 1019.0
20260905100523 89 300 2.0 8.0 0.00 0.00 0.00 30 1019.1
20260905100031 88 21 1.0 7.0 0.00 0.00 0.00 30 1019.0
20260905095504 88 275 3.0 8.0 0.00 0.00 0.00 30 1019.1
20260905095059 89 286 1.0 8.0 0.00 0.00 0.00 30 1019.1
20260905094509 89 360 0.0 9.0 0.00 0.00 0.00 29 1019.2
20260905094055 89 293 1.0 8.0 0.00 0.00 0.00 29 1019.2
20260905093524 88 309 4.0 8.0 0.00 0.00 0.00 29 1019.2
20260905093031 88 218 1.0 5.0 0.00 0.00 0.00 28 1019.2
20260905092502 89 323 2.0 6.0 0.00 0.00 0.00 28 1019.3
20260905092057 88 57 0.0 6.0 0.00 0.00 0.00 27 1019.4
20260905091538 88 343 2.0 5.0 0.00 0.00 0.00 29 1019.3
20260905091025 87 327 1.0 8.0 0.00 0.00 0.00 30 1019.2
20260905090601 87 242 2.0 8.0 0.00 0.00 0.00 29 1019.2
20260905090012 87 178 1.0 7.0 0.00 0.00 0.00 29 1019.3
20260905085534 87 287 1.0 7.0 0.00 0.00 0.00 30 1019.4
20260905085026 86 322 2.0 5.0 0.00 0.00 0.00 31 1019.3
20260905084502 86 215 0.0 8.0 0.00 0.00 0.00 31 1019.3
20260905084003 85 153 2.0 8.0 0.00 0.00 0.00 30 1019.3
20260905083537 85 331 1.0 6.0 0.00 0.00 0.00 30 1019.3
20260905083033 85 313 1.0 8.0 0.00 0.00 0.00 30 1019.4
20260905082503 86 273 2.0 6.0 0.00 0.00 0.00 30 1019.3
20260905082059 86 24 3.0 6.0 0.00 0.00 0.00 30 1019.3
20260905081555 86 50 2.0 4.0 0.00 0.00 0.00 30 1019.3
20260905081042 85 16 1.0 4.0 0.00 0.00 0.00 31 1019.2
20260905080502 85 48 0.0 5.0 0.00 0.00 0.00 31 1019.2
20260905080101 84 296 1.0 5.0 0.00 0.00 0.00 30 1019.2
20260905075501 84 44 2.0 4.0 0.00 0.00 0.00 31 1019.1
20260905075054 83 30 1.0 3.0 0.00 0.00 0.00 32 1019.0
20260905074538 83 294 0.0 6.0 0.00 0.00 0.00 32 1019.0
20260905074028 82 296 1.0 6.0 0.00 0.00 0.00 33 1018.9
20260905073554 82 16 1.0 4.0 0.00 0.00 0.00 34 1018.9
20260905073055 81 342 0.0 4.0 0.00 0.00 0.00 34 1018.9
20260905072517 80 291 2.0 4.0 0.00 0.00 0.00 34 1018.9
20260905072013 80 296 0.0 2.0 0.00 0.00 0.00 37 1018.9
20260905071544 79 63 0.0 2.0 0.00 0.00 0.00 39 1018.9
20260905071020 78 78 0.0 2.0 0.00 0.00 0.00 40 1018.9
20260905070503 77 66 0.0 2.0 0.00 0.00 0.00 40 1018.9
20260905070055 77 111 1.0 2.0 0.00 0.00 0.00 40 1018.9
20260905065502 75 109 0.0 2.0 0.00 0.00 0.00 43 1018.9
20260905065054 75 109 0.0 2.0 0.00 0.00 0.00 42 1018.9
20260905064523 74 111 0.0 2.0 0.00 0.00 0.00 44 1018.9
20260905064011 73 98 0.0 2.0 0.00 0.00 0.00 44 1019.0
20260905063546 72 102 0.0 2.0 0.00 0.00 0.00 45 1019.0
20260905063058 71 113 0.0 2.0 0.00 0.00 0.00 45 1019.0
20260905062528 70 113 0.0 2.0 0.00 0.00 0.00 47 1018.9
20260905062022 70 113 0.0 2.0 0.00 0.00 0.00 46 1018.9